Weather observations for the past three days for
Minot International Airport
Imperial (Metric)
Date Time (cdt) Wind (mph) Vis. (mi.) Weather Sky Cond. Temperature (ºF) Relative Humidity Wind Chill (°F) Heat Index (°F) Pressure Precipitation (in)
Air Dwpt 6 hour altimeter (in) sea level (mb) 1 hr 3 hr 6 hr
Max. Min.
20 05:54 E 5 10.00 Mostly Cloudy BKN065 50 48 93% 49 30.22 1023.7
20 04:54 Calm 10.00 Fair CLR 51.1 48 89% 30.22 1023.7
20 03:54 SE 7 10.00 Overcast OVC095 52 48.9 89% 30.23 1023.9
20 02:54 SE 6 10.00 Partly Cloudy SCT100 52 46.9 83% 30.24 1024.1
20 01:54 SE 5 10.00 Fair CLR 53.1 48 83% 30.23 1024.1
20 00:54 SE 6 10.00 Mostly Cloudy BKN120 55.9 48.9 69.1 55.9 77% 30.23 1024.1
19 23:54 SE 12 10.00 Mostly Cloudy BKN120 57.9 48 70% 30.22 1023.6
19 22:54 SE 9 10.00 Overcast OVC120 61 46.9 60% 30.24 1024.2
19 21:54 SE 10 10.00 Fair CLR 62.1 46.9 58% 30.22 1023.6
19 20:54 SE 8 10.00 A Few Clouds FEW120 64 46 52% 30.21 1023.2
19 19:54 SE 13 10.00 Fair CLR 66.9 45 45% 30.2 1022.9
19 18:54 S 13 G 22 10.00 Fair CLR 69.1 44.1 69.1 62.1 41% 30.2 1023.2
19 17:54 SE 10 G 21 10.00 Fair CLR 69.1 44.1 41% 30.21 1023.4
19 16:54 S 8 10.00 Fair CLR 68 43 40% 30.21 1023.6
19 15:54 Vrbl 6 10.00 Fair CLR 68 42.1 39% 30.23 1024.3
19 14:54 SE 9 G 21 10.00 A Few Clouds FEW050 66 43 43% 30.25 1024.7
19 13:54 Vrbl 5 G 18 10.00 Partly Cloudy SCT050 64.9 43 45% 30.27 1025.4
19 12:54 SW 14 10.00 Partly Cloudy SCT050 63 42.1 64 44.1 47% 30.28 1025.8
19 11:54 SW 12 G 20 10.00 A Few Clouds FEW050 62.1 39.9 44% 30.28 1025.8
19 10:54 SW 10 10.00 Fair CLR 61 42.1 50% 30.27 1025.5
19 09:54 SW 6 10.00 Fair CLR 57.9 45 62% 30.25 1025.0
19 08:54 SW 7 10.00 Fair CLR 55 46 72% 30.23 1024.5
19 07:54 SW 7 10.00 Fair CLR 50 44.1 80% 48 30.2 1023.4
19 06:54 SW 7 10.00 Fair CLR 44.1 42.1 50 42.1 93% 41 30.17 1022.6
19 05:54 W 9 10.00 Fair CLR 43 39.9 89% 38 30.13 1021.2
19 04:54 SW 8 10.00 Fair CLR 43 39.9 89% 39 30.13 1021.1
19 03:54 SW 7 10.00 Fair CLR 44.1 41 89% 41 30.12 1020.8
19 02:54 W 8 10.00 Fair CLR 46 42.1 86% 42 30.1 1020.1
19 01:54 W 10 10.00 Fair CLR 48.9 41 74% 45 30.08 1019.4
19 00:54 NW 7 10.00 Overcast OVC090 50 44.1 53.1 50 80% 48 30.06 1018.8 0.01
18 23:54 W 9 10.00 Overcast FEW055 OVC080 51.1 45 80% 30.05 1018.2
18 22:54 SW 8 10.00 Overcast OVC060 51.1 46.9 86% 30.03 1017.6
18 21:54 W 9 10.00 Light Rain OVC055 51.1 46 83% 30 1016.7 0.01
18 20:54 W 7 10.00 Overcast FEW044 BKN070 OVC085 51.1 46 83% 29.96 1015.2
18 19:54 NW 10 10.00 Overcast BKN047 OVC055 51.1 43 74% 29.93 1014.2 0.01
18 18:54 NW 10 10.00 Light Rain OVC045 53.1 46 55 53.1 77% 29.89 1012.9 0.02
18 17:54 N 8 10.00 Overcast OVC040 54 45 72% 29.87 1012.0
18 16:54 NW 10 10.00 Overcast FEW030 BKN038 OVC045 54 46.9 77% 29.86 1011.7
18 15:54 N 12 10.00 Overcast FEW018 OVC043 54 48.9 83% 29.83 1010.7 0.02
18 14:54 N 14 10.00 Light Rain FEW014 BKN026 OVC034 54 50 87% 29.8 1009.8 0.02
18 13:54 NW 14 9.00 Overcast FEW012 BKN020 OVC031 53.1 48.9 86% 29.79 1009.6
18 12:54 NW 14 9.00 Overcast FEW014 BKN023 OVC030 53.1 48.9 53.1 48.9 86% 29.78 1009.0
18 11:54 NW 14 10.00 Light Rain SCT010 BKN016 OVC039 52 48.9 89% 29.77 1008.8
18 10:54 NW 14 10.00 Light Rain FEW010 BKN013 OVC036 52 48.9 89% 29.75 1008.1
18 09:54 N 13 10.00 Overcast FEW010 FEW033 OVC046 51.1 48 89% 29.74 1007.6
18 08:54 N 14 10.00 Overcast BKN008 OVC045 50 48 93% 45 29.71 1006.7
18 07:54 N 17 G 25 10.00 Overcast BKN008 OVC032 50 46.9 89% 45 29.68 1005.5
18 06:54 N 16 G 25 10.00 Overcast BKN006 OVC035 48.9 46.9 50 48.9 93% 44 29.67 1005.4 0.01 0.07
18 05:54 NW 14 10.00 Light Rain BKN006 OVC012 48.9 46.9 93% 44 29.67 1005.3 0.02
18 04:54 N 13 7.00 Rain OVC013 48.9 48 97% 44 29.68 1005.3 0.04
18 03:54 N 13 10.00 Overcast OVC010 50 48 93% 46 29.66 1004.6
18 02:54 N 15 10.00 Overcast OVC009 50 48 93% 45 29.61 1003.0
18 01:54 N 14 10.00 Overcast OVC005 48.9 48 97% 44 29.6 1002.5
18 00:54 N 23 G 30 10.00 Overcast and Breezy OVC004 50 48 54 50 93% 44 29.58 1002.2 0.04 0.71
17 23:54 N 14 10.00 Light Rain SCT008 OVC090 50 48.9 96% 45 29.69 1006.0 0.1
17 22:54 NE 18 G 26 3.00 Heavy Rain Fog/Mist SCT007 BKN049 OVC065 50 48.9 96% 44 29.7 1006.1 0.27
17 21:54 NE 23 G 39 7.00 Thunderstorm Rain and Breezy SCT041 OVC100 50 48 93% 44 29.7 1006.1 0.28 0.3
17 20:54 NW 24 G 35 6.00 Light Rain Fog/Mist and Breezy OVC040 52 48.9 89% 29.67 1005.2 0.01
17 19:54 NE 21 G 29 10.00 Overcast and Breezy BKN050 OVC060 53.1 46.9 80% 29.63 1003.8 0.01
17 18:54 N 15 G 25 10.00 Light Rain SCT055 BKN100 OVC110 54 48 63 54 80% 29.7 1006.2 0.12 0.12
17 17:54 N 10 G 21 10.00 Overcast BKN055 OVC075 59 42.1 54% 29.72 1006.7
17 16:54 NE 12 10.00 Overcast OVC080 60.1 43 53% 29.71 1006.7
17 15:54 E 14 10.00 Overcast OVC085 63 42.1 47% 29.74 1007.3
17 14:54 E 12 10.00 Overcast OVC090 61 41 48% 29.78 1008.7
17 13:54 E 16 G 20 10.00 Mostly Cloudy BKN090 60.1 45 58% 29.8 1009.4
17 12:54 E 10 10.00 Light Rain BKN070 OVC090 57.9 42.1 59 50 56% 29.82 1010.0
17 11:54 E 9 10.00 Overcast OVC090 57.9 43 58% 29.82 1009.9
17 10:54 NE 6 10.00 Overcast FEW065 FEW080 OVC100 57 43 60% 29.81 1009.6
17 09:54 NE 5 10.00 A Few Clouds FEW095 57.9 44.1 60% 29.83 1010.4
17 08:54 SE 5 10.00 Partly Cloudy SCT100 55.9 46 70% 29.85 1011.0
17 07:54 Calm 10.00 Mostly Cloudy BKN110 52 46.9 83% 29.87 1011.5
17 06:54 Calm 10.00 Overcast OVC110 50 46 52 46 86% 29.86 1011.3
Date Time (cdt) Wind (mph) Vis. (mi.) Weather Sky Cond. Air Dwpt Max. Min. Relative Humidity Wind Chill (°F) Heat Index (°F) altimeter (in) sea level (mb) 1 hr 3 hr 6 hr
6 hour
Temperature (ºF) Pressure Precipitation (in)